Location: Newark
(34.6283°N, 36.0776°E)
Time: 15:55:01
(UTC+00:00)

Vanguard 2 Rocket - All Passes

Search period start: 15 September 2019 00:00
Search period end: 25 September 2019 00:00
Orbit: 554 x 3327 km, 32.9° (Epoch: 15 September)

Date Brightness Start Highest point End Pass type
(mag) Time Alt. Az. Time Alt. Az. Time Alt. Az.
15 Sep - 00:18:40 10° WSW 00:24:46 25° SSW 00:33:56 10° SSE visible
15 Sep - 16:42:21 10° SW 16:46:00 25° SSE 16:49:16 10° ESE visible
15 Sep - 18:54:31 10° WSW 18:58:24 67° S 19:03:06 10° E visible
15 Sep - 21:06:42 10° W 21:11:11 60° S 21:18:11 10° ESE night (unlit)
15 Sep - 23:19:14 10° W 23:24:43 30° SSW 23:33:20 10° SE visible
16 Sep - 01:36:40 10° SW 01:39:35 11° SSW 01:42:54 10° SSW visible
16 Sep - 15:43:22 10° SSW 15:46:47 18° SSE 15:49:38 10° ESE daylight
16 Sep - 17:55:20 10° WSW 17:59:17 54° SSE 18:03:19 10° E visible
16 Sep - 20:07:49 10° W 20:11:52 68° S 20:17:35 10° ESE night (unlit)
16 Sep - 22:20:05 10° W 22:24:57 36° SSW 22:32:38 10° SE night (unlit)
17 Sep - 00:34:50 10° WSW 00:39:12 15° SSW 00:44:49 10° S visible
17 Sep - 14:44:39 10° S 14:47:21 13° SSE 14:49:39 10° SE daylight
17 Sep - 16:55:56 10° SW 17:00:12 40° SSE 17:03:54 10° E visible
17 Sep - 19:08:47 10° W 19:12:41 71° S 19:17:23 10° E visible
17 Sep - 21:21:08 10° W 21:25:27 43° SSW 21:32:02 10° SE night (unlit)
17 Sep - 23:34:36 10° WSW 23:39:07 19° SSW 23:45:21 10° SSE visible
18 Sep - 15:56:20 10° SW 16:01:01 30° SSE 16:04:38 10° E visible
18 Sep - 18:09:31 10° WSW 18:13:33 68° S 18:17:38 10° E visible
18 Sep - 20:22:10 10° W 20:26:09 53° SSW 20:31:40 10° ESE night (unlit)
18 Sep - 22:35:01 10° WSW 22:39:18 23° SSW 22:45:26 10° SSE night (unlit)
19 Sep - 14:56:38 10° SSW 15:01:41 24° SSE 15:05:23 10° ESE daylight
19 Sep - 17:09:55 10° WSW 17:14:26 58° S 17:18:17 10° E visible
19 Sep - 19:23:06 10° W 19:26:58 63° S 19:31:37 10° ESE night (unlit)
19 Sep - 21:35:45 10° WSW 21:39:44 28° SSW 21:45:25 10° SE night (unlit)
20 Sep - 13:56:55 10° SSW 14:02:06 19° SSE 14:05:57 10° ESE daylight
20 Sep - 16:10:00 10° WSW 16:15:16 47° SSE 16:19:10 10° E visible
20 Sep - 18:23:47 10° W 18:27:50 70° S 18:31:56 10° E visible
20 Sep - 20:36:38 10° W 20:40:24 35° SSW 20:45:27 10° SE night (unlit)
20 Sep - 22:51:07 10° SW 22:53:43 13° SSW 22:56:47 10° S night (unlit)
21 Sep - 12:57:28 10° S 13:02:18 15° SSE 13:06:04 10° ESE daylight
21 Sep - 15:09:48 10° SW 15:15:59 38° SSE 15:20:09 10° E daylight
21 Sep - 17:24:07 10° W 17:28:43 70° S 17:32:36 10° E visible
21 Sep - 19:37:27 10° W 19:41:13 46° SSW 19:45:41 10° ESE night (unlit)
21 Sep - 21:51:00 10° WSW 21:54:04 17° SSW 21:57:55 10° SSE night (unlit)
22 Sep - 11:58:52 10° S 12:02:14 12° SSE 12:05:07 10° SE daylight
22 Sep - 14:09:25 10° SW 14:16:29 31° SSE 14:21:06 10° E daylight
22 Sep - 16:24:01 10° WSW 16:29:32 63° S 16:33:32 10° E visible
22 Sep - 18:38:06 10° W 18:42:06 59° S 18:46:09 10° ESE visible
22 Sep - 20:51:24 10° WSW 20:54:39 22° SSW 20:58:41 10° SSE night (unlit)
23 Sep - 13:08:59 10° SSW 13:16:43 26° SSE 13:21:52 10° ESE daylight
23 Sep - 15:23:31 10° WSW 15:30:15 55° SSE 15:34:37 10° E daylight
23 Sep - 17:38:23 10° W 17:43:00 70° S 17:46:53 10° E visible
23 Sep - 19:51:59 10° W 19:55:25 29° SSW 19:59:25 10° SE night (unlit)
24 Sep - 12:08:42 10° SSW 12:16:41 21° SSE 12:22:16 10° ESE daylight
24 Sep - 14:22:42 10° SW 14:30:47 46° SSE 14:35:43 10° E daylight
24 Sep - 16:38:13 10° W 16:43:49 73° S 16:47:51 10° E visible
24 Sep - 18:52:28 10° W 18:56:19 42° SSW 19:00:11 10° SE visible
24 Sep - 21:07:24 10° SW 21:08:53 11° SSW 21:10:31 10° S night (unlit)
